Location: Unspecified
(35.7250°N, 0.0000°E)
Time: 01:16:39
(UTC+00:00)

Vanguard 1 - Pass Details

Date: 04 July 2019
Orbit: 655 x 3829 km, 34.2° (Epoch: 16 August)

Event Time Altitude Azimuth Distance (km) Brightness Sun altitude
Rises 05:14:21 0° 286° (WNW) 7,386 14.1 3.7°
Reaches altitude 10° 05:20:07 10° 282° (WNW) 5,954 13.6 4.8°
Maximum altitude 05:35:29 47° 216° (SW) 2,489 11.9 7.7°
Drops below altitude 10° 05:44:04 10° 145° (SE) 3,412 13.1 9.3°
Sets 05:46:28 0° 138° (SE) 4,093 13.5 9.7°
